Satellite: RESURS
Catalog number: 25394
Epoch time: 09259.98431836
Element set: 0333
Inclination: 098.3344 deg
RA of node: 287.6351 deg
Eccentricity: 0.0001352
Arg of perigee: 343.9349 deg
Mean anomaly: 016.1788 deg
Mean motion: 14.24188465 rev/day
Decay rate: -6.9e-07 rev/day^2
Epoch rev: 58146
Checksum: 332
Satellite: FENGYUN1
Catalog number: 25730
Epoch time: 09260.88041708
Element set: 853
Inclination: 098.7606 deg
RA of node: 228.2872 deg
Eccentricity: 0.0022076
Arg of perigee: 316.9857 deg
Mean anomaly: 042.9587 deg
Mean motion: 14.07983746 rev/day
Decay rate: 5.59e-06 rev/day^2
Epoch rev: 53336
Checksum: 342
Satellite: OKEAN-0
Catalog number: 25860
Epoch time: 09260.51968836
Element set: 786
Inclination: 097.7975 deg
RA of node: 238.0814 deg
Eccentricity: 0.0000587
Arg of perigee: 090.8756 deg
Mean anomaly: 269.2514 deg
Mean motion: 14.73587504 rev/day
Decay rate: 1.3e-07 rev/day^2
Epoch rev: 54674
Checksum: 344
Satellite: NOAA-16
Catalog number: 26536
Epoch time: 09259.88094058
Element set: 0563
Inclination: 099.1800 deg
RA of node: 265.7820 deg
Eccentricity: 0.0010921
Arg of perigee: 029.1336 deg
Mean anomaly: 331.0432 deg
Mean motion: 14.12530688 rev/day
Decay rate: -1.69e-06 rev/day^2
Epoch rev: 46324
Checksum: 304
Satellite: NOAA-17
Catalog number: 27453
Epoch time: 09259.83132653
Element set: 0560
Inclination: 098.4747 deg
RA of node: 315.7021 deg
Eccentricity: 0.0011323
Arg of perigee: 211.3995 deg
Mean anomaly: 148.6482 deg
Mean motion: 14.24091182 rev/day
Decay rate: 1.17e-06 rev/day^2
Epoch rev: 37579
Checksum: 309
Satellite: NOAA-18
Catalog number: 28654
Epoch time: 09259.85915084
Element set: 0047
Inclination: 098.9123 deg
RA of node: 202.4128 deg
Eccentricity: 0.0015268
Arg of perigee: 102.7377 deg
Mean anomaly: 257.5512 deg
Mean motion: 14.11284500 rev/day
Decay rate: -1.83e-06 rev/day^2
Epoch rev: 22288
Checksum: 308
Satellite: NOAA-19
Catalog number: 33591
Epoch time: 09259.85883179
Element set: 0252
Inclination: 098.7518 deg
RA of node: 203.2618 deg
Eccentricity: 0.0014195
Arg of perigee: 348.2897 deg
Mean anomaly: 011.7959 deg
Mean motion: 14.10984596 rev/day
Decay rate: -1.34e-06 rev/day^2
Epoch rev: 03136
Checksum: 346
/EX
SB KEPS @ AMSAT $ORB09260.M
Orbital Elements 09260.MISC
HR AMSAT ORBITAL ELEMENTS FOR MANNED AND MISCELLANEOUS SATELLITES
FROM WA5QGD FORT WORTH,TX September 17, 2009
Send Subscribe/unsubscribe to KEPS at
http://www.amsat.org/mailman/listinfo/keps
BID: ORB09260.M
TO ALL RADIO AMATEURS BT
Satellite: HUBBLE
Catalog number: 20580
Epoch time: 09259.08437116
Element set: 0447
Inclination: 028.4702 deg
RA of node: 229.0485 deg
Eccentricity: 0.0003477
Arg of perigee: 167.4835 deg
Mean anomaly: 192.5878 deg
Mean motion: 15.00829594 rev/day
Decay rate: 3.07e-06 rev/day^2
Epoch rev: 86352
Checksum: 319
Satellite: ISS
Catalog number: 25544
Epoch time: 09259.87340920
Element set: 0622
Inclination: 051.6371 deg
RA of node: 196.1499 deg
Eccentricity: 0.0009356
Arg of perigee: 097.8592 deg
Mean anomaly: 019.9809 deg
Mean motion: 15.74137060 rev/day
Decay rate: 7.169e-05 rev/day^2
Epoch rev: 62039
Checksum: 334
Satellite: CO-58
Catalog number: 28895
Epoch time: 09260.25574701
Element set: 397
Inclination: 098.0437 deg
RA of node: 148.2275 deg
Eccentricity: 0.0018879
Arg of perigee: 061.5325 deg
Mean anomaly: 298.7754 deg
Mean motion: 14.59795182 rev/day
Decay rate: 1.22e-06 rev/day^2
Epoch rev: 20716
Checksum: 351
Satellite: FALCON
Catalog number: 30776
Epoch time: 09260.41619302
Element set: 659
Inclination: 035.4344 deg
RA of node: 259.8201 deg
Eccentricity: 0.0001742
Arg of perigee: 344.2642 deg
Mean anomaly: 015.8020 deg
Mean motion: 15.03302509 rev/day
Decay rate: 2.95e-06 rev/day^2
Epoch rev: 13898
Checksum: 273
Satellite: MAST
Catalog number: 31126
Epoch time: 09260.69301320
Element set: 687
Inclination: 097.9791 deg
RA of node: 311.2163 deg
Eccentricity: 0.0094662
Arg of perigee: 353.5211 deg
Mean anomaly: 006.4770 deg
Mean motion: 14.53515090 rev/day
Decay rate: -1.44e-06 rev/day^2
Epoch rev: 12847
Checksum: 279
Satellite: CAPE1
Catalog number: 31130
Epoch time: 09260.68527319
Element set: 697
Inclination: 097.9807 deg
RA of node: 309.1883 deg
Eccentricity: 0.0102909
Arg of perigee: 359.6081 deg
Mean anomaly: 000.5016 deg
Mean motion: 14.52085486 rev/day
Decay rate: -3.8e-07 rev/day^2
Epoch rev: 12811
Checksum: 304
Satellite: COMPASS
Catalog number: 32787
Epoch time: 09260.28605451
Element set: 465
Inclination: 097.9341 deg
RA of node: 323.2908 deg
Eccentricity: 0.0017090
Arg of perigee: 093.3623 deg
Mean anomaly: 266.9535 deg
Mean motion: 14.81655008 rev/day
Decay rate: 3.22e-06 rev/day^2
Epoch rev: 7508
Checksum: 303
Satellite: AAUSAT2
Catalog number: 32788
Epoch time: 09259.63848704
Element set: 0467
Inclination: 097.9339 deg
RA of node: 322.7231 deg
Eccentricity: 0.0016900
Arg of perigee: 096.2258 deg
Mean anomaly: 264.0877 deg
Mean motion: 14.81779288 rev/day
Decay rate: 1.10e-06 rev/day^2
Epoch rev: 07499
Checksum: 349
Satellite: DO-64
Catalog number: 32789
Epoch time: 09260.74066799
Element set: 476
Inclination: 097.9373 deg
RA of node: 324.0385 deg
Eccentricity: 0.0016876
Arg of perigee: 090.7834 deg
Mean anomaly: 269.5312 deg
Mean motion: 14.81790128 rev/day
Decay rate: 2.80e-06 rev/day^2
Epoch rev: 7515
Checksum: 350
Satellite: CO-66
Catalog number: 32791
Epoch time: 09260.74494242
Element set: 458
Inclination: 097.9362 deg
RA of node: 323.7787 deg
Eccentricity: 0.0017407
Arg of perigee: 089.4018 deg
Mean anomaly: 270.9187 deg
Mean motion: 14.81477166 rev/day
Decay rate: 1.81e-06 rev/day^2
Epoch rev: 7511
Checksum: 339
Satellite: RS-30
Catalog number: 32953
Epoch time: 09260.35033873
Element set: 407
Inclination: 082.5027 deg
RA of node: 199.3022 deg
Eccentricity: 0.0019345
Arg of perigee: 342.4073 deg
Mean anomaly: 017.6341 deg
Mean motion: 12.43003101 rev/day
Decay rate: 1.0e-07 rev/day^2
Epoch rev: 5984
Checksum: 255
Satellite: TACSAT-3
Catalog number: 35001
Epoch time: 09260.80993862
Element set: 99
Inclination: 040.4548 deg
RA of node: 046.6380 deg
Eccentricity: 0.0022739
Arg of perigee: 130.4330 deg
Mean anomaly: 229.8472 deg
Mean motion: 15.39160440 rev/day
Decay rate: 2.358e-05 rev/day^2
Epoch rev: 1862
Checksum: 292
Satellite: PHARMSAT
Catalog number: 35002
Epoch time: 09260.74985356
Element set: 96
Inclination: 040.4682 deg
RA of node: 046.2920 deg
Eccentricity: 0.0025370
Arg of perigee: 134.2619 deg
Mean anomaly: 226.0282 deg
Mean motion: 15.39915071 rev/day
Decay rate: 2.169e-05 rev/day^2
Epoch rev: 1861
Checksum: 284
Satellite: HAWKSAT1
Catalog number: 35003
Epoch time: 09259.80034946
Element set: 100
Inclination: 040.4622 deg
RA of node: 051.3227 deg
Eccentricity: 0.0025544
Arg of perigee: 132.6730 deg
Mean anomaly: 227.6251 deg
Mean motion: 15.40628816 rev/day
Decay rate: 4.165e-05 rev/day^2
Epoch rev: 1848
Checksum: 263
Satellite: CP6
Catalog number: 35004
Epoch time: 09259.79931168
Element set: 94
Inclination: 040.4595 deg
RA of node: 051.3119 deg
Eccentricity: 0.0024992
Arg of perigee: 129.6314 deg
Mean anomaly: 230.6707 deg
Mean motion: 15.40689374 rev/day
Decay rate: 5.154e-05 rev/day^2
Epoch rev: 1847
Checksum: 314
Satellite: AEROCUB3
Catalog number: 35005
Epoch time: 09260.78616511
Element set: 95
Inclination: 040.4740 deg
RA of node: 045.7330 deg
Eccentricity: 0.0025286
Arg of perigee: 135.8423 deg
Mean anomaly: 224.4416 deg
Mean motion: 15.40493796 rev/day
Decay rate: 4.880e-05 rev/day^2
Epoch rev: 1862
Checksum: 288
Satellite: DRAGNSAT
Catalog number: 35690
Epoch time: 09260.88061712
Element set: 47
Inclination: 051.6396 deg
RA of node: 188.0706 deg
Eccentricity: 0.0002019
Arg of perigee: 253.1658 deg
Mean anomaly: 106.9109 deg
Mean motion: 15.82451940 rev/day
Decay rate: 2.7068e-04 rev/day^2
Epoch rev: 781
Checksum: 297
Satellite: POLLUX
Catalog number: 35693
Epoch time: 09260.77133799
Element set: 49
Inclination: 051.6392 deg
RA of node: 188.8470 deg
Eccentricity: 0.0003399
Arg of perigee: 173.5523 deg
Mean anomaly: 186.5545 deg
Mean motion: 15.81808893 rev/day
Decay rate: 2.4591e-04 rev/day^2
Epoch rev: 776
Checksum: 347
Satellite: CASTOR
Catalog number: 35694
Epoch time: 09260.78714765
Element set: 47
Inclination: 051.6409 deg
RA of node: 188.9607 deg
Eccentricity: 0.0003667
Arg of perigee: 183.9743 deg
Mean anomaly: 176.1227 deg
Mean motion: 15.80877262 rev/day
Decay rate: 1.2853e-04 rev/day^2
Epoch rev: 776
Checksum: 339
/EX
More information about the Keps
mailing list